{"data":{"norad_id":48412,"epoch":"2026-05-24T19:28:19.509888Z","epoch_age_seconds":91056,"freshness":"FRESH","line1":"1 48412U 21038BM  26144.81133692  .00002101  00000+0  79427-4 0  9999","line2":"2 48412  53.1580 302.4158 0000798  94.7917 265.3176 15.31702545279604","mean_motion":15.31702545,"eccentricity":7.98e-5,"inclination_deg":53.158,"raan_deg":302.4158,"arg_perigee_deg":94.7917,"mean_anomaly_deg":265.3176,"bstar":7.9427e-5,"rev_number":27960,"period_min":94.013031753499,"perigee_km":470.18586894477,"apogee_km":471.2789485024,"semimajor_km":6848.8694087236,"source":"CELESTRAK","updated_at":"2026-05-25T13:38:16.713576Z"}}